Location: Newark
(25.0000°N, 73.5000°E)
Time: 23:28:13
(UTC+00:00)

Vanguard 1 Rocket - All Passes

Search period start: 30 July 2021 00:00
Search period end: 09 August 2021 00:00
Orbit: 650 x 4226 km, 34.3° (Epoch: 30 July)

Date Brightness Start Highest point End Pass type
(mag) Time Alt. Az. Time Alt. Az. Time Alt. Az.
30 Jul - 02:00:23 10° SSW 02:23:16 41° SE 02:39:07 10° E daylight
30 Jul - 04:31:08 10° WSW 04:54:24 83° SSE 05:06:32 10° ENE daylight
30 Jul - 07:07:38 10° W 07:23:25 55° NNW 07:31:23 10° ENE daylight
30 Jul - 09:42:11 10° WNW 09:51:04 47° N 09:56:15 10° E daylight
30 Jul - 12:11:08 10° WNW 12:16:27 47° SSW 12:20:39 10° SE daylight
31 Jul - 00:48:24 10° S 01:08:24 28° SE 01:24:40 10° E daylight
31 Jul - 03:15:36 10° SW 03:40:27 66° SSE 03:55:01 10° ENE daylight
31 Jul - 05:50:27 10° WSW 06:10:36 69° NNW 06:20:37 10° ENE daylight
31 Jul - 08:27:16 10° WNW 08:39:05 47° N 08:45:26 10° ENE daylight
31 Jul - 10:58:30 10° WNW 11:05:41 85° NNE 11:10:18 10° ESE daylight
31 Jul - 13:28:35 10° WSW 13:29:54 11° SW 13:31:11 10° SSW daylight
31 Jul - 23:39:11 10° S 23:53:20 17° SE 00:06:32 10° ESE visible
01 Aug - 02:01:26 10° SSW 02:25:53 50° SE 02:42:39 10° ENE daylight
01 Aug - 04:33:28 10° WSW 04:57:10 86° NNW 05:09:35 10° ENE daylight
01 Aug - 07:10:49 10° W 07:26:37 53° N 07:34:37 10° ENE daylight
01 Aug - 09:45:04 10° WNW 09:54:22 58° NNE 09:59:38 10° E daylight
01 Aug - 12:14:27 10° W 12:19:17 30° SW 12:23:10 10° SSE daylight
02 Aug - 00:48:49 10° SSW 01:11:01 36° SE 01:28:55 10° E daylight
02 Aug - 03:17:28 10° SW 03:43:04 76° SSE 03:58:07 10° ENE daylight
02 Aug - 05:53:26 10° W 06:13:36 64° NNW 06:23:45 10° ENE daylight
02 Aug - 08:30:17 10° WNW 08:42:26 51° N 08:48:50 10° E daylight
02 Aug - 11:01:25 10° WNW 11:08:42 68° SSW 11:13:20 10° SE daylight
02 Aug - 23:38:15 10° S 23:56:04 24° SE 00:12:38 10° E visible
03 Aug - 02:02:51 10° SW 02:28:24 60° SE 02:45:56 10° ENE daylight
03 Aug - 04:36:04 10° WSW 04:59:58 78° NNW 05:12:38 10° ENE daylight
03 Aug - 07:13:59 10° W 07:29:53 53° N 07:37:57 10° ENE daylight
03 Aug - 09:47:53 10° WNW 09:57:35 73° NNE 10:02:57 10° ESE daylight
03 Aug - 12:18:10 10° W 12:22:01 19° SW 12:25:12 10° S daylight
03 Aug - 22:32:31 10° SSE 22:41:08 13° SE 22:49:50 10° ESE visible
04 Aug - 00:49:45 10° SSW 01:13:26 45° SE 01:32:38 10° ENE daylight
04 Aug - 03:19:38 10° WSW 03:45:42 86° SSE 04:01:09 10° ENE daylight
04 Aug - 05:56:32 10° W 06:16:42 60° NNW 06:26:56 10° ENE daylight
04 Aug - 08:33:11 10° WNW 08:45:45 57° N 08:52:14 10° E daylight
04 Aug - 11:04:26 10° WNW 11:11:34 46° SW 11:16:07 10° SE daylight
04 Aug - 23:38:24 10° S 23:58:31 31° SE 00:17:25 10° E visible
05 Aug - 02:04:35 10° SW 02:30:51 70° SSE 02:49:03 10° ENE daylight
05 Aug - 04:38:54 10° WSW 05:02:52 71° NNW 05:15:43 10° ENE daylight
05 Aug - 07:17:04 10° WNW 07:33:11 55° N 07:41:19 10° ENE daylight
05 Aug - 09:50:40 10° WNW 10:00:40 87° SSW 10:06:06 10° ESE daylight
05 Aug - 12:23:09 10° WSW 12:24:36 11° SW 12:25:58 10° SSW daylight
05 Aug - 22:29:45 10° S 22:43:50 18° SE 22:58:24 10° E visible
06 Aug - 00:51:05 10° SSW 01:15:44 54° SE 01:36:00 10° ENE daylight
06 Aug - 03:22:04 10° WSW 03:48:21 85° NNW 04:04:09 10° ENE daylight
06 Aug - 05:59:41 10° W 06:19:54 58° N 06:30:12 10° ENE daylight
06 Aug - 08:35:59 10° WNW 08:48:59 68° NNE 08:55:34 10° E daylight
06 Aug - 11:07:40 10° WNW 11:14:13 31° SW 11:18:37 10° SSE daylight
06 Aug - 23:39:11 10° SSW 00:00:46 38° SE 00:21:26 10° ENE visible
07 Aug - 02:06:38 10° SW 02:33:17 79° SSE 02:52:03 10° ENE daylight
07 Aug - 04:41:53 10° W 05:05:51 66° NNW 05:18:51 10° ENE daylight
07 Aug - 07:20:01 10° WNW 07:36:30 59° N 07:44:41 10° E daylight
07 Aug - 09:53:28 10° WNW 10:03:33 65° SSW 10:09:04 10° SE daylight
07 Aug - 22:29:17 10° S 22:46:11 25° SE 23:04:11 10° E visible
08 Aug - 00:52:45 10° SW 01:17:58 63° SE 01:39:07 10° ENE daylight
08 Aug - 03:24:45 10° WSW 03:51:06 77° NNW 04:07:10 10° ENE daylight
08 Aug - 06:02:48 10° W 06:23:09 58° N 06:33:31 10° ENE daylight
08 Aug - 08:38:42 10° WNW 08:52:07 82° NNE 08:58:48 10° ESE daylight
08 Aug - 11:11:16 10° W 11:16:45 21° SW 11:20:43 10° S daylight
08 Aug - 21:24:21 10° SSE 21:31:57 12° SE 21:40:06 10° ESE visible
